Location: Fort Frances
(48.6170°N, 93.4170°W)
Time: 22:40:02
(UTC-05:00)

Daily predictions for brighter satellites

Satellite Brightness Start Highest point End
(mag) Time Altitude Azimuth Time Altitude Azimuth Time Altitude Azimuth
Cosmos 1844 Rocket 3.7 20:52:08 10° NNW 20:57:09 33° NE 21:02:08 10° ESE
Cosmos 1908 Rocket 4.1 20:53:39 10° N 20:57:45 39° ENE 21:01:50 10° SE
Cosmos 2278 Rocket 4.0 20:53:56 10° N 20:57:57 19° NE 21:01:56 10° E
YAOGAN 6 3.5 20:59:01 10° SE 21:02:17 33° ENE 21:05:32 10° N
CZ-4C R/B 3.8 20:57:39 10° NW 21:03:44 35° NNE 21:10:32 10° E
Sich 1 Rocket 4.0 20:59:52 10° N 21:04:13 46° ENE 21:08:33 10° SSE
SPOT 5 4.2 21:00:41 10° ESE 21:04:17 22° ENE 21:07:46 10° NNE
USA 229 DEB 4.3 20:59:25 10° S 21:05:23 34° ESE 21:11:28 10° NE
USA 229 4.3 20:59:33 10° S 21:05:30 33° ESE 21:11:34 10° NE
Cosmos 1933 3.4 21:03:51 10° S 21:07:49 60° E 21:11:48 10° NNE
Cosmos 1782 Rocket 4.4 21:08:20 10° N 21:12:21 34° ENE 21:16:21 10° SE
Cosmos 1992 Rocket 4.0 21:08:58 10° SSW 21:14:13 84° ESE 21:19:30 10° NNE
Cosmos 1733 Rocket 3.5 21:10:06 10° NNW 21:14:32 66° W 21:18:57 10° S
Meteor 2-10 Rocket 4.0 21:11:00 10° S 21:16:38 53° E 21:22:13 10° NNE
Cosmos 1777 Rocket 4.5 21:11:52 10° NNW 21:16:59 47° ENE 21:21:49 11° SE
Cosmos 1862 4.0 21:14:30 10° NNW 21:18:28 58° W 21:22:26 10° S
BREEZE-M DEB (TANK) 4.4 21:15:45 10° W 21:20:36 68° S 21:40:54 10° ESE
Helios 1A 3.6 21:18:20 10° S 21:22:32 58° W 21:26:45 10° NNW
Cosmos 2219 Rocket 3.7 21:20:01 11° SE 21:22:55 16° E 21:26:08 10° ENE
Okean 1-7 4.1 21:21:11 10° SSE 21:24:56 28° E 21:28:42 10° NNE
Okean 2 Rocket 3.9 21:23:13 10° N 21:27:25 36° ENE 21:30:55 14° SE
USA 267 3.3 21:21:01 10° NE 21:27:36 89° NNW 21:34:10 10° WSW
Cosmos 1862 Rocket 3.8 21:24:05 10° SSW 21:28:34 77° W 21:33:05 10° N
Cosmos 1782 4.3 21:30:21 14° ESE 21:32:17 20° E 21:35:13 10° NE
Cosmos 2084 4.3 21:30:47 10° NNW 21:34:17 33° NE 21:37:17 13° E
Meteor 1-26 Rocket 4.3 21:30:20 10° S 21:35:58 64° E 21:41:46 10° NNE
Cosmos 1633 4.5 21:35:18 10° NNE 21:37:46 17° ENE 21:39:16 14° E
ATLAS 3B R/B 4.5 21:33:37 10° NW 21:39:18 25° NNE 21:44:45 10° ENE
Cosmos 2263 Rocket 3.5 21:34:33 10° NW 21:39:36 36° WSW 21:44:38 10° S
USA 186 4.4 21:38:02 10° SW 21:40:03 17° W 21:42:11 10° NW
Cosmos 968 Rocket 4.0 21:38:28 10° NNW 21:43:36 60° WSW 21:48:43 10° S
Cosmos 1939 Rocket 3.7 21:40:43 10° S 21:44:37 48° W 21:48:30 10° NNW
Terra 3.5 21:45:02 13° E 21:47:42 20° ENE 21:51:08 10° NNE
Cosmos 1703 Rocket 3.5 21:44:50 10° S 21:49:15 71° E 21:53:39 10° NNE
Abrixas rocket 2.1 21:49:52 10° W 21:53:09 84° SSW 21:55:07 22° E
Meteor 1-29 4.1 21:51:09 10° N 21:54:32 47° WNW 21:57:51 10° SW
Cosmos 2322 Rocket 3.6 21:50:22 10° WSW 21:55:40 42° NW 22:01:02 10° NNE
Cosmos 2237 4.2 21:50:24 10° S 21:56:01 60° ESE 22:01:39 10° NE
Atlas Centaur 2 4.2 21:55:12 10° SW 21:59:40 18° S 22:02:01 16° SSE
Helios 1B rocket 3.9 21:56:50 10° N 22:00:42 40° WNW 22:04:33 10° SW
Cosmos 2151 Rocket 4.2 21:57:39 10° N 22:01:50 39° ENE 22:03:58 24° SE
BREEZE-M DEB (TANK) 4.0 21:59:07 10° W 22:02:54 70° S 22:15:33 10° ESE
Cosmos 2360 Rocket 2.3 21:57:24 10° SSW 22:03:04 79° WNW 22:08:47 10° NNE
MetOp-B 4.1 21:59:17 16° SSE 22:03:42 88° ENE 22:09:05 10° NNW
USA 234 3.7 21:59:28 17° SSE 22:04:30 54° SW 22:10:54 10° WNW
Cosmos 2266 Rocket 4.2 21:58:46 10° NNW 22:05:03 73° W 22:11:23 10° S
COSMOS 2428 2.8 21:59:55 10° S 22:05:26 55° ESE 22:11:01 10° NE
Meteor 1-11 Rocket 4.3 22:05:38 10° N 22:10:50 40° ENE 22:13:39 24° SE
ATLAS 5 CENTAUR R/B 3.8 22:06:22 10° WNW 22:11:31 30° WSW 22:17:01 10° S
H-2A R/B 2.2 22:09:10 24° SE 22:11:55 52° ENE 22:16:42 10° N
Cosmos 1844 3.7 22:07:19 10° NNW 22:13:03 81° ENE 22:16:28 25° SSE
MOS 1-B Rocket 3.8 22:09:35 19° SSE 22:13:50 81° ENE 22:19:27 10° NNW
Cosmos 2221 Rocket 3.6 22:09:34 10° S 22:13:59 87° W 22:18:28 10° N
YAOGAN 11 4.2 22:11:08 20° S 22:14:09 76° WSW 22:18:30 10° NNW
NOAA 11 4.3 22:10:51 16° S 22:15:23 74° WSW 22:20:54 10° NNW
Okean 1 Rocket 4.5 22:12:59 10° NNE 22:16:36 24° ENE 22:17:55 21° E
Cosmos 1606 2.9 22:17:05 34° SE 22:18:16 47° E 22:21:56 10° NNE
Meteor 1-25 Rocket 4.4 22:12:59 10° NNW 22:18:34 70° W 22:23:01 16° S
Cosmos 2322 4.1 22:15:18 10° SW 22:20:59 69° WNW 22:26:42 10° NNE
SL-16 R/B 4.2 22:22:16 11° E 22:22:16 11° E 22:23:17 10° ENE
ARGOS 3.2 22:19:00 21° SSE 22:22:42 84° WSW 22:28:07 10° NNW
Cosmos 1570 Rocket 4.3 22:22:48 25° SSE 22:25:30 46° ESE 22:30:32 10° NNE
ERS-1 Rocket 4.0 22:22:02 10° SSW 22:26:42 41° W 22:31:28 10° NNW
SL-16 R/B 4.4 22:21:55 10° WSW 22:26:46 28° NW 22:31:39 10° NNE
SeaSat 1 2.4 22:24:45 29° SSE 22:27:21 88° WSW 22:32:21 10° NNW
Meteor 1-20 Rocket 4.5 22:22:32 10° NNW 22:28:04 67° W 22:32:18 18° S
Cosmos 1244 Rocket 4.5 22:25:58 10° N 22:32:15 89° ENE 22:36:20 24° S
H-2A R/B 2.5 22:31:01 35° ESE 22:32:25 49° ENE 22:36:40 10° N
Cosmos 1536 3.9 22:29:04 10° N 22:32:41 30° ENE 22:33:19 28° E
Cosmos 2208 Rocket 4.2 22:33:32 28° SSE 22:36:06 51° ESE 22:41:15 10° NNE
SL-08 R/B 4.4 22:34:55 10° N 22:41:04 70° E 22:44:04 32° SSE
Cosmos 1844 Rocket 3.3 22:35:54 10° NW 22:41:16 50° WSW 22:44:24 24° S
Cosmos 2237 Rocket 2.7 22:40:20 33° SE 22:41:41 38° ESE 22:46:54 10° NE
SL-08 RB Rocket 3.9 22:39:25 28° S 22:41:44 66° WSW 22:46:16 10° NNW
SPOT 5 3.4 22:39:14 22° S 22:42:05 52° W 22:46:33 10° NNW
Cosmos 2278 Rocket 2.2 22:37:18 10° NNW 22:43:00 78° ENE 22:45:29 35° SE
Cosmos 2333 4.2 22:37:24 10° SSW 22:43:09 90° NW 22:48:58 10° NNE
Cosmos 2333 Rocket 2.3 22:41:57 27° S 22:44:53 53° ESE 22:50:30 10° NE
Cosmos 1553 Rocket 4.1 22:41:44 29° SSE 22:44:54 60° E 22:50:59 10° NNE
Meteor 2-6 Rocket 4.3 22:43:44 21° S 22:47:55 85° E 22:53:54 10° NNE
Iridium 4 Rocket 3.3 22:45:18 10° N 22:49:20 47° E 22:49:54 44° ESE
NOSS 3-1 (C) 3.4 22:43:39 10° SSW 22:49:24 63° SE 22:55:54 10° NE
Cosmos 1300 Rocket 3.6 22:47:15 10° N 22:51:36 65° ENE 22:52:33 50° SE
CZ-4C R/B 2.8 22:46:04 10° NW 22:53:04 87° SW 22:57:01 32° SE
Cosmos 1898 Rocket 3.5 22:49:31 10° NNW 22:54:43 68° ENE 22:56:24 42° SE
USA 229 DEB 4.1 22:49:09 10° SW 22:55:57 67° NW 23:02:57 10° NE
USA 229 4.1 22:49:14 10° SW 22:56:03 67° NW 23:03:04 10° NE
ASTEX 1 3.3 22:54:58 41° SSE 22:56:42 79° E 23:01:42 10° N
SPOT 1/Viking Rocket 4.1 22:57:12 27° SSW 22:59:53 54° W 23:05:01 10° NNW
Cosmos 2219 Rocket 2.1 23:01:36 17° SSW 23:06:03 89° WNW 23:11:44 10° NNE
NOSS 3-1 (A) 3.4 23:02:34 24° SSW 23:06:07 62° SE 23:12:38 10° NE
Meteor 1-5 Rocket 4.4 23:01:50 10° N 23:07:28 63° ENE 23:09:15 43° SE
ATLAS 2AS CENTAUR R/B 4.1 23:08:09 23° ESE 23:08:09 23° ESE 23:14:03 10° ENE
Cosmos 1782 4.1 23:05:58 19° SW 23:08:24 38° WNW 23:12:10 10° N
CRYOSAT 2 4.3 23:08:18 51° SSE 23:09:31 78° E 23:14:25 10° N
Landsat 7 4.1 23:08:19 39° SSW 23:09:54 61° WSW 23:14:38 10° NNW
USA 267 4.2 23:04:05 10° ENE 23:10:20 48° NNW 23:16:34 10° W
Cosmos 1386 Rocket 4.5 23:06:25 10° N 23:12:51 78° E 23:15:13 41° SSE
Cosmos 1633 3.5 23:09:30 10° NNW 23:12:57 40° W 23:13:34 36° WSW
Cosmos 2084 4.1 23:10:15 10° WNW 23:13:48 36° SW 23:13:51 36° SW
S3M 3.9 23:13:05 32° S 23:16:08 88° WNW 23:22:25 10° N
Cosmos 1602 4.4 23:13:54 10° NNW 23:17:37 47° W 23:18:09 43° WSW
Cosmos 1378 Rocket 3.7 23:19:19 57° E 23:19:21 57° E 23:23:44 10° NNE
Cosmos 1709 Rocket 4.3 23:13:20 10° N 23:19:39 57° ENE 23:21:36 41° SE
Cosmos 1814 Rocket 4.4 23:21:55 42° E 23:21:55 42° E 23:26:37 10° NE
Cosmos 1346 Rocket 3.2 23:22:04 50° WSW 23:22:46 60° WNW 23:26:44 10° N
Terra 2.1 23:23:55 47° SSW 23:25:01 62° WSW 23:29:46 10° NNW
Meteor 2-11 Rocket 4.3 23:22:52 39° S 23:25:19 88° E 23:31:27 10° N
deb Chang Zheng 4 3.6 23:26:38 10° NNE 23:31:03 78° WNW 23:31:43 62° SW
Cosmos 468 Rocket 3.9 23:30:44 59° SSE 23:31:33 69° ESE 23:36:52 10° NNE
ATLAS 3B R/B 3.3 23:24:56 10° NW 23:31:41 50° NE 23:35:08 27° E
Meteor 1-27 Rocket 4.0 23:29:00 31° SSW 23:31:43 66° WNW 23:37:17 10° N
Okean 3 3.3 23:34:54 82° ENE 23:34:54 82° ENE 23:39:00 10° N
Cosmos 1812 4.1 23:36:24 29° ENE 23:36:24 29° ENE 23:38:51 10° NNE
Cosmos 2369 Rocket 3.9 23:33:08 10° N 23:37:40 24° NE 23:40:34 16° E
CZ-4B R/B 3.2 23:32:54 10° NNE 23:37:41 75° ESE 23:38:04 70° SSE
Cosmos 2297 3.6 23:33:30 10° NNW 23:39:15 85° WSW 23:40:26 58° SSE
Geosat 3.8 23:34:23 10° NNE 23:39:26 79° ESE 23:40:17 61° S
ATLAS CENTAUR R/B 3.1 23:42:33 22° ENE 23:42:33 22° ENE 23:44:09 10° NE
CARTOSAT-1 4.4 23:40:03 38° WSW 23:40:38 40° W 23:44:45 10° NNW
Spot 4 3.7 23:41:33 66° SSW 23:42:07 76° WSW 23:46:55 10° NNW
Cosmos 1943 Rocket 4.4 23:41:01 10° N 23:44:51 18° NE 23:48:38 10° E
Cosmos 841 Rocket 4.1 23:46:41 40° E 23:46:41 40° E 23:51:00 10° NE
IGS 5A 4.5 23:47:17 35° WSW 23:47:36 36° W 23:51:27 10° NNW
Cosmos 1975 3.9 23:43:54 10° N 23:47:07 36° NE 23:47:07 36° NE
USA 81 4.2 23:48:40 55° ESE 23:49:01 57° E 23:54:11 10° NNE
COSMOS 2428 4.4 23:44:58 10° WSW 23:50:01 32° NW 23:55:07 10° NNE
H-2A R/B 3.7 23:49:47 18° WSW 23:51:39 23° W 23:55:32 10° NW
CZ-4 R/B 4.0 23:48:47 10° N 23:53:34 70° WNW 23:54:29 55° SW
Okean 1 Rocket 3.9 23:50:30 10° NNW 23:54:40 40° W 23:55:07 39° WSW
